Forside
METAR-TAF:

METAR-TAF

Lufthavne :

Ames, Iowa, USA

Breddekreds: 41-59-26N, længdekreds: 093-37-08W, højde: 288 m

Aktuelle vejr

Denne rapport blev lavet for 45 minutter siden, kl. 17:53 UTC
Vind 6 kt fra varierende retninger
Temperatur 26°C
Fugtighed 45%
Tryk 1020 hPa
Sigt: 16.1 km
skyfri

METAR: KAMW 031753Z AUTO VRB06KT 10SM CLR 26/13 A3013 RMK AO2 SLP198 T02560133 10256 20122 58006

Tid: 13:38 (18:38 UTC)


TAF: fraværende

Vejrobservationer og prognoser fra mere end 4000 lufthavne (METAR og TAF).

De gule og røde prikker repræsenterer de meteorologiske stationer.

Flyt musen over at se navnet på stationen.

Så klik over at se vejr observationer og prognoser.

At skifte det kort: Klik på de grønne knapper med et sort kors for at zoome ind; på den grønne knap med en bindestreg for at zoome ud; eller på de grønne pile for tilstødende kort.


METAR-TAF: